This is the latest recevied weather packets stored in our database for station/object KD9DOE. If no packets are shown the sender has not sent any weather packets the latest 1 day(s).
| Time | Temp. | Humidity | Pressure | Rain* | Wind** | Luminosity | Snow |
|---|---|---|---|---|---|---|---|
| 1778006433 | 13.89° C | 27% | 1009.1 hPa | 0 mm | 1.79 m/s, 348° | 770 W/m² | - |
| 1778006130 | 14.44° C | 25% | 1009.1 hPa | 0 mm | 0.89 m/s, 274° | 750 W/m² | - |
| 1778005827 | 14.44° C | 25% | 1009.1 hPa | 0 mm | 2.24 m/s, 345° | 754 W/m² | - |
| 1778005523 | 14.44° C | 25% | 1009 hPa | 0 mm | 0.89 m/s, 113° | 870 W/m² | - |
| 1778005220 | 14.44° C | 27% | 1008.8 hPa | 0 mm | 1.34 m/s, 307° | 699 W/m² | - |
| 1778004917 | 13.89° C | 26% | 1008.6 hPa | 0 mm | 1.34 m/s, 326° | 785 W/m² | - |
| 1778004614 | 13.33° C | 27% | 1008.8 hPa | 0 mm | 0.89 m/s, 344° | 656 W/m² | - |
| 1778004310 | 13.89° C | 26% | 1008.6 hPa | 0 mm | 0.89 m/s, 291° | 485 W/m² | - |
| 1778004008 | 13.89° C | 28% | 1008.7 hPa | 0 mm | 0.89 m/s, 332° | 568 W/m² | - |
| 1778003702 | 13.89° C | 27% | 1008.5 hPa | 0 mm | 0.45 m/s, 282° | 619 W/m² | - |
| 1778003400 | 13.33° C | 28% | 1008.6 hPa | 0 mm | 0.89 m/s, 277° | 721 W/m² | - |
| 1778003097 | 13.33° C | 27% | 1008.7 hPa | 0 mm | 0.89 m/s, 288° | 655 W/m² | - |
| 1778002793 | 13.89° C | 26% | 1008.7 hPa | 0 mm | 1.79 m/s, 322° | 669 W/m² | - |
| 1778002489 | 13.89° C | 27% | 1008.7 hPa | 0 mm | 0.45 m/s, 341° | 787 W/m² | - |
| 1778002186 | 13.33° C | 27% | 1008.8 hPa | 0 mm | 0.89 m/s, 331° | 671 W/m² | - |
| 1778001885 | 13.33° C | 27% | 1008.7 hPa | 0 mm | 0.89 m/s, 353° | 649 W/m² | - |
| 1778001584 | 13.33° C | 27% | 1008.9 hPa | 0 mm | 0.45 m/s, 288° | 802 W/m² | - |
| 1778001281 | 12.78° C | 27% | 1009 hPa | 0 mm | 0.45 m/s, 212° | 717 W/m² | - |
| 1778000977 | 12.78° C | 27% | 1008.9 hPa | 0 mm | 1.79 m/s, 346° | 517 W/m² | - |
| 1778000674 | 13.33° C | 26% | 1009.1 hPa | 0 mm | 1.79 m/s, 333° | 820 W/m² | - |
| 1778000370 | 13.33° C | 30% | 1008.8 hPa | 0 mm | 1.79 m/s, 335° | 755 W/m² | - |
| 1778000066 | 12.78° C | 30% | 1008.8 hPa | 0 mm | 0.89 m/s, 350° | 784 W/m² | - |
| 1777999761 | 12.78° C | 30% | 1009.2 hPa | 0 mm | 0.89 m/s, 311° | 726 W/m² | - |
| 1777999458 | 12.78° C | 30% | 1009 hPa | 0 mm | 1.34 m/s, 60° | 640 W/m² | - |
| 1777999156 | 12.22° C | 31% | 1009.1 hPa | 0 mm | 0.89 m/s, 172° | 715 W/m² | - |
* Rain latest hour (hover to see other rain measurements)
** Current wind speed in m/s (hover to see current wind gust speed)